{"data":{"norad_id":64926,"intl_designator":"2025-157Y","name":"STARLINK-34543","alt_names":[],"object_type":"PAYLOAD","status":"ACTIVE","operator":null,"country":"US","launch_date":"2025-07-26","launch_site_code":"AFETR","launch_vehicle":null,"mission":null,"orbit_class":"UNKNOWN","rcs_meters":null,"size_class":null,"mass_kg":null,"dimensions":null,"purposes":["comms"],"wikipedia_slug":null,"has_3d_model":false,"image_url":null,"decayed_at":null,"tle_current":{"epoch":"2026-05-24T20:18:43.940160Z","epoch_age_seconds":85379,"freshness":"FRESH","line1":"1 64926U 25157Y   26144.84634190  .00020938  00000+0  68441-3 0  9996","line2":"2 64926  53.1610 351.9273 0000867  96.7378 263.3722 15.31708625 47730","mean_motion":15.31708625,"eccentricity":8.67e-5,"inclination_deg":53.161,"raan_deg":351.9273,"arg_perigee_deg":96.7378,"mean_anomaly_deg":263.3722,"bstar":0.00068441,"rev_number":4773,"period_min":94.012658575974,"perigee_km":470.12048926372,"apogee_km":471.30808007648,"semimajor_km":6848.8512846701,"source":"CELESTRAK","updated_at":"2026-05-25T13:38:20.625822Z"}}}